Tracking 28096 objects as of 27-Sep-2023
HD Live streaming from Space Station
objects crossing your sky now

BEIDOU 3M23

Track BEIDOU 3M23 now!
BEIDOU 3M23 is classified as:


NORAD ID: 44542
Int'l Code: 2019-061A
Perigee: 21,511.5 km
Apogee: 21,558.8 km
Inclination: 54.5 °
Period: 773.2 minutes
Semi major axis: 27906 km
RCS: Unknown
Launch date: September 22, 2019
Source: People's Republic of China (PRC)
Launch site: Xichang Space Center, China (XSC)
Your satellite tracking list
Your tracking list is empty




NASA's NSSDC Master Catalog

Two Line Element Set (TLE):
1 44542U 19061A   23269.80483238 -.00000011  00000-0  00000-0 0  9997
2 44542  54.4830 216.3000 0008484 344.7959  15.1465  1.86231409 27276
Source of the keplerian elements: AFSPC